Вернуться в каталог

STARLINK-38200

АктивенСвязьSSO
NORAD 100232·PAYLOAD·🇺🇸 United States

Запущен Aug 4, 2026 с Vandenberg Space Force Base

Loading…

Ближайшие Пролёты (ближайшие 24 часа)

TLE

СвежийSource: Space-Track

Эпоха: Sep 14, 2026, 16:07 UTC

1 A0232U 26177V   26257.67158069  .00017141  00000-0  31601-3 0  9992
2 A0232  97.2834 308.4972 0001148  86.6669 273.4714 15.49201558  6464

Отслеживайте STARLINK-38200 в реальном времени с AllMySat

Download on the App Store